When you browse on this site, cookies collect data to enhance your experience and personalize the content and advertising you see.
Visit our Privacy Policy to learn more. By continuing to use the site, you agree to this use of cookies and data.
  • In Czech Republic
  • List of Countries
  • For 7 days
  • Water Temperature
  • Satellite Maps
  • Weather Map
  • Weather Widgets
  • user-avatar
    Login

    Hourly Weather Cárdenas

    Today, 26 June, Wednesday

    Time Temperature Precipitation Wind Pressure Humidity
    00:00 +28°C° 0.1 mm 3 mps 757 mmHg 88%
    01:00 +27°C° 0 mm 3 mps 757 mmHg 86%
    02:00 +27°C° 0 mm 3 mps 756 mmHg 84%
    03:00 +26°C° 0 mm 3 mps 756 mmHg 83%
    04:00 +26°C° 0 mm 3 mps 756 mmHg 85%
    05:00 +25°C° 0 mm 2 mps 756 mmHg 87%
    06:00 +25°C° 0 mm 2 mps 757 mmHg 88%
    07:00 +26°C° 0 mm 2 mps 757 mmHg 83%
    08:00 +28°C° 0 mm 3 mps 757 mmHg 78%
    09:00 +30°C° 0 mm 3 mps 758 mmHg 73%
    10:00 +31°C° 0 mm 3 mps 758 mmHg 69%
    11:00 +33°C° 0 mm 4 mps 757 mmHg 65%
    12:00 +35°C° 0 mm 4 mps 757 mmHg 61%
    13:00 +35°C° 0 mm 4 mps 757 mmHg 60%
    14:00 +36°C° 0 mm 4 mps 756 mmHg 59%
    15:00 +36°C° 0 mm 4 mps 755 mmHg 57%
    16:00 +35°C° 0.3 mm 4 mps 755 mmHg 63%
    17:00 +34°C° 0.3 mm 4 mps 755 mmHg 69%
    18:00 +33°C° 0.3 mm 3 mps 755 mmHg 75%
    19:00 +30°C° 0.9 mm 4 mps 756 mmHg 80%
    20:00 +29°C° 0.9 mm 4 mps 757 mmHg 84%
    21:00 +28°C° 0.9 mm 5 mps 757 mmHg 89%
    22:00 +28°C° 0.9 mm 4 mps 757 mmHg 89%
    23:00 +27°C° 0.9 mm 4 mps 757 mmHg 90%

    Tomorrow, 27 June, Thursday

    Time Temperature Precipitation Wind Pressure Humidity
    00:00 +27°C° 0.9 mm 4 mps 758 mmHg 90%
    01:00 +27°C° 0 mm 3 mps 757 mmHg 90%
    02:00 +27°C° 0 mm 3 mps 757 mmHg 90%
    03:00 +26°C° 0 mm 3 mps 757 mmHg 90%
    04:00 +26°C° 0 mm 3 mps 757 mmHg 91%
    05:00 +25°C° 0 mm 3 mps 757 mmHg 92%
    06:00 +25°C° 0 mm 3 mps 757 mmHg 93%
    07:00 +26°C° 0 mm 3 mps 758 mmHg 88%
    08:00 +28°C° 0 mm 3 mps 758 mmHg 83%
    09:00 +29°C° 0 mm 4 mps 759 mmHg 78%
    10:00 +32°C° 0 mm 4 mps 759 mmHg 70%
    11:00 +34°C° 0 mm 4 mps 758 mmHg 61%
    12:00 +35°C° 0 mm 4 mps 758 mmHg 53%
    13:00 +36°C° 0 mm 4 mps 758 mmHg 52%
    14:00 +36°C° 0 mm 5 mps 757 mmHg 52%
    15:00 +36°C° 0 mm 5 mps 757 mmHg 51%
    16:00 +34°C° 0.2 mm 5 mps 757 mmHg 59%
    17:00 +33°C° 0.2 mm 5 mps 757 mmHg 67%
    18:00 +30°C° 0.2 mm 5 mps 757 mmHg 76%
    19:00 +29°C° 0.9 mm 4 mps 757 mmHg 81%
    20:00 +28°C° 0.9 mm 4 mps 758 mmHg 86%
    21:00 +27°C° 0.9 mm 3 mps 759 mmHg 91%
    22:00 +26°C° 1 mm 3 mps 759 mmHg 90%
    23:00 +26°C° 1 mm 3 mps 759 mmHg 89%

    Day after tomorrow, 28 June, Friday

    Time Temperature Precipitation Wind Pressure Humidity
    00:00 +26°C° 1 mm 2 mps 759 mmHg 89%
    01:00 +26°C° 0 mm 2 mps 758 mmHg 89%
    02:00 +26°C° 0 mm 1 mps 758 mmHg 89%
    03:00 +25°C° 0 mm 1 mps 757 mmHg 90%
    04:00 +25°C° 0 mm 1 mps 758 mmHg 90%
    05:00 +25°C° 0 mm 1 mps 758 mmHg 90%
    06:00 +25°C° 0 mm 1 mps 758 mmHg 91%
    07:00 +26°C° 0.1 mm 1 mps 758 mmHg 84%
    08:00 +28°C° 0.1 mm 1 mps 759 mmHg 78%
    09:00 +30°C° 0.1 mm 1 mps 759 mmHg 71%
    10:00 +31°C° 0 mm 2 mps 759 mmHg 65%
    11:00 +32°C° 0 mm 2 mps 759 mmHg 60%
    12:00 +34°C° 0 mm 2 mps 759 mmHg 54%
    13:00 +35°C° 0 mm 3 mps 758 mmHg 52%
    14:00 +36°C° 0 mm 3 mps 758 mmHg 50%
    15:00 +36°C° 0 mm 4 mps 757 mmHg 48%
    16:00 +34°C° 0.4 mm 4 mps 757 mmHg 57%
    17:00 +32°C° 0.4 mm 4 mps 757 mmHg 67%
    18:00 +29°C° 0.4 mm 4 mps 757 mmHg 76%
    19:00 +29°C° 0 mm 3 mps 757 mmHg 79%
    20:00 +28°C° 0 mm 3 mps 758 mmHg 82%
    21:00 +27°C° 0 mm 2 mps 758 mmHg 85%
    22:00 +26°C° 0.5 mm 2 mps 758 mmHg 87%
    23:00 +26°C° 0.5 mm 1 mps 758 mmHg 89%

    29 June, Saturday

    Time Temperature Precipitation Wind Pressure Humidity
    00:00 +26°C° 0.5 mm 1 mps 758 mmHg 91%
    01:00 +25°C° 0.7 mm 1 mps 758 mmHg 92%
    02:00 +25°C° 0.7 mm 1 mps 758 mmHg 92%
    03:00 +23°C° 0.7 mm 0 mps 758 mmHg 93%
    04:00 +25°C° 0 mm 1 mps 758 mmHg 92%
    05:00 +25°C° 0 mm 1 mps 758 mmHg 92%
    06:00 +25°C° 0 mm 1 mps 757 mmHg 91%
    07:00 +27°C° 0.3 mm 1 mps 758 mmHg 86%
    08:00 +28°C° 0.3 mm 2 mps 758 mmHg 81%
    09:00 +30°C° 0.3 mm 2 mps 759 mmHg 77%
    10:00 +30°C° 1.7 mm 2 mps 759 mmHg 73%
    11:00 +31°C° 1.7 mm 3 mps 759 mmHg 69%
    12:00 +33°C° 1.7 mm 3 mps 758 mmHg 66%
    13:00 +33°C° 1.3 mm 3 mps 758 mmHg 66%
    14:00 +33°C° 1.3 mm 3 mps 757 mmHg 66%
    15:00 +33°C° 1.3 mm 4 mps 757 mmHg 66%
    16:00 +31°C° 0.7 mm 3 mps 757 mmHg 70%
    17:00 +30°C° 0.7 mm 3 mps 757 mmHg 75%
    18:00 +29°C° 0.7 mm 3 mps 757 mmHg 79%
    19:00 +28°C° 0.2 mm 2 mps 757 mmHg 82%
    20:00 +27°C° 0.2 mm 2 mps 758 mmHg 86%
    21:00 +26°C° 0.2 mm 2 mps 758 mmHg 89%
    22:00 +26°C° 0.6 mm 2 mps 758 mmHg 90%
    23:00 +26°C° 0.6 mm 1 mps 758 mmHg 91%

    30 June, Sunday

    Time Temperature Precipitation Wind Pressure Humidity
    00:00 +26°C° 0.6 mm 1 mps 758 mmHg 92%
    01:00 +26°C° 1 mm 1 mps 758 mmHg 92%
    02:00 +26°C° 1 mm 1 mps 758 mmHg 91%
    03:00 +25°C° 1 mm 1 mps 757 mmHg 90%
    04:00 +25°C° 0 mm 1 mps 757 mmHg 90%
    05:00 +25°C° 0 mm 1 mps 757 mmHg 90%
    06:00 +25°C° 0 mm 1 mps 757 mmHg 91%
    07:00 +27°C° 0.2 mm 1 mps 758 mmHg 86%
    08:00 +28°C° 0.2 mm 1 mps 758 mmHg 82%
    09:00 +29°C° 0.2 mm 1 mps 759 mmHg 78%
    10:00 +30°C° 1.3 mm 1 mps 758 mmHg 75%
    11:00 +30°C° 1.3 mm 2 mps 758 mmHg 72%
    12:00 +31°C° 1.3 mm 2 mps 758 mmHg 69%
    13:00 +31°C° 0.8 mm 2 mps 757 mmHg 69%
    14:00 +31°C° 0.8 mm 3 mps 757 mmHg 70%
    15:00 +31°C° 0.8 mm 3 mps 756 mmHg 70%
    16:00 +31°C° 0.5 mm 3 mps 756 mmHg 73%
    17:00 +30°C° 0.5 mm 3 mps 756 mmHg 77%
    18:00 +29°C° 0.5 mm 2 mps 756 mmHg 80%
    19:00 +28°C° 0.6 mm 2 mps 757 mmHg 83%
    20:00 +27°C° 0.6 mm 2 mps 757 mmHg 86%
    21:00 +26°C° 0.6 mm 2 mps 758 mmHg 89%
    22:00 +26°C° 0.1 mm 2 mps 758 mmHg 90%
    23:00 +26°C° 0.1 mm 1 mps 758 mmHg 91%

    1 July, Monday

    Time Temperature Precipitation Wind Pressure Humidity
    00:00 +26°C° 0.1 mm 1 mps 758 mmHg 91%
    01:00 +26°C° 0 mm 1 mps 757 mmHg 92%
    02:00 +26°C° 0 mm 1 mps 757 mmHg 93%
    03:00 +26°C° 0 mm 1 mps 757 mmHg 93%
    04:00 +25°C° 0 mm 1 mps 757 mmHg 94%
    05:00 +25°C° 0 mm 1 mps 757 mmHg 95%
    06:00 +25°C° 0 mm 1 mps 757 mmHg 95%
    07:00 +26°C° 0 mm 1 mps 758 mmHg 91%
    08:00 +28°C° 0 mm 1 mps 758 mmHg 86%
    09:00 +29°C° 0 mm 1 mps 758 mmHg 82%
    10:00 +30°C° 1.2 mm 1 mps 758 mmHg 79%
    11:00 +30°C° 1.2 mm 1 mps 758 mmHg 76%
    12:00 +31°C° 1.2 mm 1 mps 757 mmHg 74%
    13:00 +31°C° 2.1 mm 1 mps 757 mmHg 74%
    14:00 +31°C° 2.1 mm 2 mps 756 mmHg 74%
    15:00 +32°C° 2.1 mm 2 mps 756 mmHg 75%
    16:00 +31°C° 1.4 mm 2 mps 756 mmHg 78%
    17:00 +30°C° 1.4 mm 2 mps 756 mmHg 82%
    18:00 +30°C° 1.4 mm 2 mps 756 mmHg 85%
    19:00 +29°C° 0.1 mm 2 mps 756 mmHg 87%
    20:00 +28°C° 0.1 mm 1 mps 757 mmHg 89%
    21:00 +27°C° 0.1 mm 1 mps 757 mmHg 91%
    22:00 +27°C° 0 mm 1 mps 757 mmHg 91%
    23:00 +27°C° 0 mm 1 mps 757 mmHg 91%
    Show more